www.pogodaiklimat.ru
ПОГОДА в Йезде
Время
(UTC), дата
12 21.03
15 21.03
18 21.03
21 21.03
00 22.03
03 22.03
06 22.03
09 22.03
12 22.03
15 22.03
18 22.03
21 22.03
00 23.03
03 23.03
06 23.03
09 23.03
12 23.03
15 23.03
18 23.03
21 23.03
00 24.03
03 24.03
06 24.03
09 24.03
12 24.03
15 24.03
18 24.03
21 24.03
00 25.03
03 25.03
06 25.03
09 25.03
12 25.03
15 25.03
18 25.03
21 25.03
00 26.03
03 26.03
06 26.03
09 26.03
12 26.03
15 26.03
18 26.03
21 26.03
00 27.03
03 27.03
06 27.03
09 27.03
12 27.03
15 27.03
18 27.03
21 27.03
00 28.03
03 28.03
06 28.03
09 28.03
Ветер
(напр.,м/с)
Видим. Явления Облачность Т
(С)
Тd
(С)
f
(%)
Тe
(С)
Тes
(С)
Комфортность P
(гПа)
Po
(гПа)
Тmin
(С)
Tmax
(С)
R
(мм)
R24
(мм)
S
(см)
В 2 20 км 6/3 1200 м
[Cu hum Cs]
+24.3 -8.7 10 +22 +25 комфорт 1003.5 869.8
Ю 3 10 км 4/4 1200 м
[Sc diur, vesp]
+21.8 +0.4 24 +21 +21 комфорт 1004.9 870.7 +24.9 666
СВ 2 12 км 5/5 1050 м
[Cu Sc]
+18.8 +0.5 29 +19 +19 1004.9 871.5
СЗ 1 12 км 4/4 900 м
[Cu hum]
+16.5 +1.2 36 +17 +17 1003.5 871.0
З 3 12 км 3/3 1050 м
[Sc diur, vesp]
+12.4 +5.4 62 +11 +11 1006.2 872.8
З 3 12 км 1/1 600 м
[Cu hum Ci fib]
+10.1 +6.3 77 +8 +8 1008.0 873.3 +9.8 666
В 1 10 км 9/3 900 м
[Sc diur, vesp Cs]
+14.6 +6.7 59 +15 +23 1007.9 873.6
ЮЗ 2 7000 м слаб. дождь 10/4 900 м
[Cb calv As op Cs]
+17.6 +5.1 44 +18 +23 1006.2 872.1
В 5 10 км {дождь} 9/5 900 м
[Cb calv Ac As Cs]
+19.2 +4.9 39 +19 +20 1001.8 867.8 0.0
В 10 10 км 8/6 1050 м
[Cb calv Ac As]
+17.6 +4.5 42 +16 +16 1000.6 866.0 +20.0
Ю 6 10 км в посл. час ливневой дождь 9/5 600 м
[Cb calv Ac As]
+16.6 +2.6 39 +16 +16 1001.0 867.1
С 3 12 км 3/3 1200 м
[Sc diur, vesp]
+10.3 +0.3 50 +9 +9 1002.1 867.3
СЗ 3 12 км ясно +8.2 -1.6 50 +6 +6 1002.3 867.2
Ю 1 20 км 1/1 1050 м
[Cu hum]
+6.4 -4.3 46 +6 +7 1004.4 868.3 +6.4 666
СВ 2 20 км 4/3 1050 м
[Cu hum Ci sp]
+12.8 -6.8 25 +13 +20 1003.9 868.9 0.0
СЗ 4 20 км 6/4 1050 м
[Cu med, cong Ci sp]
+15.2 -4.9 25 +14 +21 1004.8 868.9
С 5 15 км 8/6 900 м
[Cb calv Ci sp]
+13.9 -2.5 32 +12 +14 1005.7 869.0
СЗ 6 10 км 8/6 900 м
[Cb calv Cs]
+9.8 +1.0 54 +7 +7 1010.7 872.1 +15.4 666
С 4 10 км 8/6 1050 м
[Cb calv Cs]
+9.3 +1.8 59 +7 +7 1011.7 874.2
СЗ 3 10 км 6/5 1050 м
[Cb calv Ac As Cs]
+8.8 +1.8 61 +7 +7 1011.0 874.1
С 1 10 км 4/0
[Ac As Ci fib]
+7.2 +1.5 67 +7 +7 1011.5 873.9
Ю 1 25 км 4/1 900 м
[Cu hum Ac trans]
+5.4 +1.3 75 +4 +5 1014.2 874.8 +5.3
ЮВ 1 20 км 10/5 1200 м
[Cb calv As op Ci fib]
+10.2 +1.3 54 +10 +13 1013.9 875.6
С 2 25 км 10/3 1050 м
[Cu hum As op]
+9.8 +1.1 55 +9 +11 1014.5 875.9
З 2 17 км 10/6 1200 м
[Cu hum As op]
+10.9 +1.4 52 +10 +10 1014.1 875.4
СЗ 2 30 км 10/1 1050 м
[Sc diur, vesp As op Cs]
+11.0 +1.6 52 +10 +10 1015.2 876.0 +11.5
СЗ 2 20 км 8/3 1050 м
[Sc diur, vesp Ac As Cs]
+9.4 +1.8 59 +8 +8 1015.6 877.1
СЗ 2 20 км 8/3 1050 м
[Sc diur, vesp Ac As Cs]
+9.2 +1.2 57 +8 +8 1015.8 877.1
З 2 20 км 6/1 1200 м
[Sc diur, vesp Ac As Cs]
+8.2 +1.3 62 +7 +7 1015.3 876.7
СЗ 1 10 км 8/1 1200 м
[Sc diur, vesp Ac As]
+7.2 +1.7 68 +7 +7 1016.9 877.9 +7.1 666
СЗ 2 25 км 8/3 1200 м
[Cu hum Ac As]
+11.4 +2.4 54 +11 +15 1017.6 879.1
С 3 25 км 4/4 1200 м
[Cu hum]
+15.5 +1.4 38 +15 +23 1015.4 878.0 666
СЗ 4 25 км 5/5 1200 м
[Cu hum]
+16.4 +0.1 33 +16 +18 1013.8 876.6
СЗ 3 25 км 3/3 1200 м
[Sc diur, vesp]
+15.1 -1.3 32 +15 +15 1015.0 877.1 +17.7 666
З 2 25 км ясно +11.8 -1.0 41 +11 +11 1016.2 878.3
Ю 1 25 км 1/1 1000 м
[Sc diur, vesp]
+9.9 -0.8 47 +10 +10 1016.2 878.8
Ю 1 25 км 9/9 1200 м
[Sc]
+8.2 -0.4 55 +8 +8 1016.4 878.8
З 2 25 км 1/1 1000 м
[Cu hum Ac trans]
+7.3 +0.3 61 +6 +6 1017.8 879.6 +7.2 666
СЗ 2 15 км 4/1 1050 м
[Cu hum Ac trans]
+12.8 +1.1 45 +12 +21 1019.0 881.1
С 4 15 км 3/1 1050 м
[Cu hum Ac trans]
+16.6 +0.8 34 +16 +25 1016.6 879.4
СЗ 3 15 км 3/3 1050 м
[Cu med, cong]
+19.1 -2.7 23 +19 +23 1014.3 877.5
СЗ 4 15 км 5/3 1200 м
[Sc diur, vesp Ac As Ci sp]
+16.3 -2.1 28 +16 +16 1015.9 878.1 +19.4
З 3 15 км 3/0
[Ac As]
+13.4 -1.2 36 +13 +13 1016.9 879.6
З 3 15 км 6/0
[Ac und]
+12.4 -1.2 39 +11 +11 1016.7 880.0
З 2 15 км 5/0
[Ac As]
+10.0 -1.7 44 +9 +9 1016.6 879.9
З 2 20 км 9/1 1200 м
[Sc diur, vesp Ac As Cs]
+10.1 -0.4 48 +9 +9 1018.5 881.0 +9.5 666
СЗ 3 20 км 9/1 1200 м
[Sc diur, vesp Ac As Cs]
+12.6 +0.3 43 +12 +16 1020.2 882.4
Ю 3 20 км 9/3 750 м
[Frnb Ac As Cs]
+14.2 +3.8 50 +13 +19 1019.0 881.6
ЮЗ 1 20 км 8/5 1050 м
[Cu Sc Ac As Cs]
+17.8 +2.2 35 +19 +22 1016.3 879.5
С 1 20 км 4/1 1050 м
[Sc diur, vesp Ci sp]
+16.7 +1.4 36 +18 +18 1016.6 879.5 +19.3 666
ЮЗ 1 20 км 9/1 1200 м
[Sc diur, vesp Ac As Ci fib]
+14.5 +2.1 43 +15 +15 1017.8 880.6
ЮВ 3 20 км ясно +13.2 +1.3 44 +12 +12 1016.7 879.7
В 3 20 км ясно +12.8 +0.9 44 +12 +12 1015.3 879.2
В 1 20 км 8/3 1050 м
[Sc diur, vesp Ac trans Cc]
+11.7 +1.3 49 +12 +12 1016.4 879.7 +10.8 666
ЮВ 3 20 км 10/3 1050 м
[Sc diur, vesp Ac As Cs]
+16.5 +1.5 36 +16 +20 1016.4 880.3
В 3 20 км 10/0
[Ac As Cs]
+19.8 +2.2 31 +20 +29 1013.1 877.9
Местоположение метеостанции Йезд (Иран): широта 31.90 долгота 54.28 высота над уровнем моря 1237 м.
В архиве по умолчанию представлена погода в Йезде за последнюю неделю. Архивные данные за месяц целиком и за предыдущие месяцы, начиная с января 2011 года, Вы можете получить, выбрав интересующий диапазон дат из раскрывающегося списка и нажав кнопку "Найти!".
*Определитесь, кто Вы:
Внимание! Время в таблицах - всемирное. Для получения местного времени необходимо прибавить поправку, которая равна 3.5 ч.
Смотрите также архив погоды в соседних городах и на ближайших метеорологических станциях:
Партнеры нашего сайта:      
Пояснения к столбцам:
  • Ветер - указаны скорость ветра в м/с - средняя за 10 мин, порывы в срок и между сроками (в фигурных скобках) и направление, откуда дует ветер: С - северный,
  • СВ - северо-восточный, В - восточный, ЮВ - юго-восточный, Ю - южный, ЮЗ - юго-западный, З - западный, СЗ - северо-западный.
  • Видимость - горизонтальная дальность видимости в метрах или километрах. При видимости от 1 до 10 км при отсутствии осадков обычно наблюдается дымка, при ухудшении видимости до 1 км и менее - туман. В сухую погоду видимость может ухудшаться дымом, пылью или мглою.
  • Явления - указаны атмосферные явления, наблюдавшиеся в срок или в последний час перед сроком; фигурными скобками обозначены явления, наблюдавшиеся между сроками (за 1-3 часа до срока); квадратными скобками обозначены град или гололедные отложения с указанием их диаметра в мм.
  • Облачность - указаны через наклонную черту общая и нижняя облачность в баллах и высота нижней границы облаков в метрах; квадратными скобками обозначены формы облаков: Ci - перистые, Cs - перисто-слоистые, Cc - перисто-кучевые, Ac - высококучевые, As - высокослоистые, Sc - слоисто-кучевые, Ns - слоисто-дождевые, Cu - кучевые, Cb - кучево-дождевые. Подробнее классификацию облаков см. в Атласе облаков (PDF).
  • T - Температура воздуха - температура, измеренная на высоте 2 м над землей.
  • Td - Температура точки росы - температура, при понижении до которой содержащийся в воздухе водяной пар достигнет насыщения.
  • f - Относительная влажность воздуха - влажноcть воздуха, измеренная на высоте 2 м над землей.
  • Te - Эффективная температура - температура, которую ощущает одетый по сезону человек в тени. Характеристика душности погоды. При расчете учитывается влияние влажности воздуха и скорости ветра на теплоощущения человека.
  • Tes - Эффективная температура на солнце - температура, которую ощущает человек, с поправкой на солнечный нагрев. Характеристика знойности погоды. Зависит от высоты солнца над горизонтом, облачности и скорости ветра. Ночью, в пасмурную погоду, а также при ветре 12 м/с и более поправка равна нулю.
  • P - Атмосферное давление - приведенное к уровню моря атмосферное давление.
  • Po - Атмосферное давление - измеренное на уровне метеостанции атмосферное давление.
  • Tmin - Минимальная температура - минимум температуры воздуха на высоте 2 м над землей.
  • Tmax - Максимальная температура - максимум температуры воздуха на высоте 2 м над землей.
  • R - Количество осадков - Количество выпавших осадков за период времени, мм. При наведении курсора мыши на число - период времени, за который выпало указанное количество осадков.
  • R24 - Количество осадков - Количество выпавших осадков за 24 часа, мм.
  • S - Снежный покров - Высота снежного покрова, см. При наведении курсора мыши на число - состояние снежного покрова и степень покрытия местности в баллах.